Home   Weather   Cupertino   Past weeks

Flag for USA Past Weather in Cupertino, California, USA — Yesterday and Last 2 Weeks

Now
69 °F

Passing clouds.


Feels Like: 69 °F
Forecast: 59 / 72 °F
Wind: 7 mph from North

Location: Moffett Field

Current Time: Jun 26, 2017 at 11:57:10 am

Latest Report: Jun 26, 2017 at 10:56 am


Visibility: 10 mi

Pressure: 30.06 "Hg

Humidity: 63%

Dew Point: 56 °F

Location of CupertinoLocation

Past Weather in Cupertino — Graph

°F

Cupertino Temperature Yesterday

Maximum temperature yesterday: 70 °F (at 3:56 pm)
Minimum temperature yesterday: 61 °F (at 12:56 am)
Average temperature yesterday: 64 °F

High & Low Weather Summary for the Past Weeks

 TemperatureHumidityPressure
High99 °F (Jun 18, 2:56 pm)93% (Jun 21, 3:26 am)30.16 "Hg (Jun 21, 3:26 am)
Low52 °F (Jun 12, 4:13 am)25% (Jun 18, 12:56 pm)29.68 "Hg (Jun 22, 4:56 am)
Average68 °F69%29.93 "Hg
* Reported Jun 11 9:56 am — Jun 26 9:56 am, Cupertino. Weather by CustomWeather, © 2017

Note: Actual official high and low records may vary slightly from our data, if they occured in-between our weather recording intervals... More about our weather records

Advertising

Cupertino Weather History for the Previous 24 Hours

Scroll right to see more
 ConditionsComfort  
Time TempWeatherWind HumidityBarometerVisibility
9:56 am
Mon, Jun 26
68 °FPassing clouds.8 mph63%30.05 "Hg10 mi
9:07 am66 °FScattered clouds.5 mph65%30.05 "Hg10 mi
8:56 am65 °FPartly sunny.No wind68%30.05 "Hg10 mi
7:56 am63 °FOvercast.3 mph73%30.05 "Hg10 mi
7:18 am62 °FPartly sunny.No wind75%30.04 "Hg10 mi
6:56 am62 °FScattered clouds.3 mph75%30.04 "Hg10 mi
5:56 am61 °FOvercast.5 mph78%30.04 "Hg10 mi
4:56 am60 °FOvercast.5 mph80%30.03 "Hg10 mi
3:56 am60 °FOvercast.8 mph80%30.03 "Hg10 mi
2:56 am60 °FOvercast.6 mph83%30.04 "Hg10 mi
1:56 am60 °FClear.3 mph83%30.04 "Hg10 mi
12:56 am61 °FClear.No wind81%30.03 "Hg10 mi
11:56 pm
Sun, Jun 25
61 °FClear.No wind78%30.04 "Hg10 mi
10:56 pm62 °FClear.No wind78%30.04 "Hg10 mi
9:56 pm63 °FClear.3 mph75%30.02 "Hg10 mi
8:56 pm63 °FClear.10 mph81%30.01 "Hg10 mi
7:56 pm65 °FSunny.12 mph73%29.99 "Hg10 mi
6:56 pm68 °FSunny.17 mph70%29.98 "Hg10 mi
5:56 pm69 °FSunny.16 mph66%29.98 "Hg10 mi
4:56 pm69 °FSunny.16 mph68%29.98 "Hg10 mi
3:56 pm70 °FSunny.14 mph64%30.00 "Hg10 mi
2:56 pm69 °FSunny.12 mph66%30.02 "Hg10 mi
1:56 pm68 °FSunny.15 mph68%30.02 "Hg10 mi
1:04 pm68 °FScattered clouds.13 mph68%30.03 "Hg10 mi
11:56 am67 °FPartly sunny.9 mph71%30.03 "Hg10 mi
11:22 am68 °FScattered clouds.9 mph68%30.02 "Hg10 mi
Weather by CustomWeather, © 2017

See weather overviewHow to use our weather pages